Temp
-22 -22 -22 -22 -23 -23 -23 -23 -23 -23 -23 -23 -23 -23 -23 -23 -23 -23 -23 -23 -23 -23 -23 -23 -23 -22 -22 -22 -22 -22 -22 -22 -21 -21 -21 -20 -20 -20 -20 -19 -19 -19 -18 -17 -16 -15 -15 -15 -15 -14 -13 -13 -12 -12 -11 -11 -11 -10 -10 -10 -10 -10 -10
-22 -23 -23 -23 -23 -23 -23 -23 -23 -23 -24 -24 -24 -23 -23 -23 -23 -23 -23 -23 -23 -23 -23 -23 -23 -23 -23 -23 -23 -22 -22 -22 -22 -22 -21 -21 -21 -21 -21 -20 -20 -20 -19 -19 -18 -17 -16 -16 -16 -15 -14 -14 -13 -13 -12 -12 -11 -11 -10 -10 -10 -10 -10
-23 -23 -23 -23 -24 -24 -24 -24 -24 -24 -24 -24 -24 -24 -24 -24 -24 -24 -24 -24 -23 -23 -23 -23 -23 -23 -23 -23 -23 -23 -23 -23 -23 -23 -22 -22 -22 -21 -21 -21 -21 -21 -20 -20 -19 -18 -16 -16 -17 -16 -15 -15 -14 -13 -13 -12 -12 -12 -11 -11 -11 -10 -10
-23 -23 -23 -24 -24 -24 -24 -24 -24 -24 -24 -24 -24 -24 -24 -24 -24 -24 -24 -24 -23 -23 -23 -23 -23 -23 -23 -23 -23 -23 -23 -23 -23 -23 -23 -23 -22 -22 -22 -22 -21 -21 -21 -21 -20 -20 -18 -17 -17 -18 -17 -16 -15 -14 -14 -13 -13 -12 -12 -11 -11 -11 -11
-24 -24 -24 -24 -24 -24 -24 -24 -24 -24 -24 -24 -25 -25 -25 -24 -24 -24 -24 -24 -23 -23 -24 -24 -24 -24 -24 -24 -24 -23 -23 -23 -23 -23 -23 -23 -23 -22 -22 -22 -22 -22 -22 -21 -21 -21 -20 -18 -18 -18 -18 -18 -17 -16 -15 -14 -13 -13 -13 -12 -12 -11 -11
-24 -24 -24 -24 -24 -24 -24 -24 -24 -24 -24 -24 -24 -24 -24 -24 -24 -24 -24 -24 -24 -24 -24 -24 -24 -24 -24 -25 -24 -24 -23 -23 -23 -23 -23 -23 -22 -22 -22 -22 -22 -22 -22 -22 -21 -21 -21 -20 -19 -19 -18 -18 -18 -17 -16 -15 -14 -13 -13 -13 -12 -12 -12
-24 -24 -24 -24 -24 -25 -25 -25 -24 -24 -24 -24 -24 -24 -24 -24 -24 -24 -24 -24 -24 -24 -24 -24 -24 -24 -24 -24 -24 -24 -23 -23 -22 -22 -22 -22 -22 -22 -21 -21 -21 -21 -21 -22 -22 -22 -21 -21 -20 -19 -18 -18 -18 -18 -17 -16 -15 -14 -14 -13 -13 -12 -12
-25 -25 -25 -25 -25 -25 -25 -25 -25 -24 -24 -24 -24 -24 -24 -24 -24 -24 -24 -24 -23 -24 -24 -24 -24 -24 -24 -24 -23 -23 -22 -22 -22 -22 -22 -21 -21 -21 -21 -21 -21 -21 -21 -22 -22 -22 -22 -21 -21 -20 -19 -18 -19 -19 -18 -17 -16 -15 -14 -13 -13 -12 -12
-24 -25 -25 -25 -25 -25 -25 -25 -24 -24 -24 -24 -24 -24 -24 -24 -24 -24 -24 -24 -24 -24 -24 -24 -24 -24 -24 -23 -23 -22 -22 -22 -22 -21 -21 -21 -21 -21 -21 -21 -21 -21 -22 -22 -22 -22 -22 -21 -21 -21 -20 -19 -19 -19 -18 -17 -16 -15 -14 -14 -13 -13 -12
-24 -24 -25 -25 -25 -25 -25 -25 -24 -24 -24 -24 -24 -24 -24 -25 -25 -25 -25 -25 -25 -25 -25 -25 -25 -24 -24 -24 -23 -22 -22 -22 -21 -21 -21 -21 -21 -21 -21 -22 -22 -22 -22 -22 -22 -22 -21 -21 -21 -21 -20 -20 -19 -19 -18 -17 -17 -16 -15 -14 -13 -13 -13
-24 -24 -24 -25 -25 -25 -25 -24 -24 -24 -24 -23 -23 -24 -24 -24 -25 -25 -25 -25 -25 -25 -25 -25 -24 -24 -24 -24 -23 -23 -22 -22 -21 -21 -21 -21 -21 -21 -21 -22 -22 -22 -21 -22 -22 -21 -21 -21 -21 -21 -20 -20 -20 -19 -19 -18 -17 -16 -15 -14 -14 -13 -13
-24 -24 -25 -25 -25 -25 -25 -24 -24 -24 -24 -23 -23 -24 -24 -24 -24 -25 -25 -25 -25 -25 -25 -24 -24 -24 -24 -23 -23 -22 -22 -22 -21 -21 -21 -21 -21 -21 -21 -21 -21 -21 -21 -21 -21 -21 -21 -21 -21 -20 -20 -20 -20 -20 -19 -19 -18 -17 -16 -15 -14 -13 -13
-24 -25 -25 -25 -25 -25 -25 -25 -24 -24 -24 -24 -24 -24 -24 -24 -24 -25 -25 -25 -25 -25 -24 -24 -23 -23 -23 -22 -22 -22 -22 -22 -22 -21 -21 -21 -21 -21 -21 -20 -20 -20 -20 -20 -21 -21 -20 -20 -20 -20 -20 -20 -20 -20 -19 -19 -19 -18 -17 -16 -15 -14 -13
-25 -25 -25 -25 -25 -25 -25 -25 -24 -24 -24 -24 -24 -24 -24 -24 -24 -25 -25 -25 -24 -24 -24 -23 -23 -23 -22 -22 -21 -21 -21 -22 -22 -21 -21 -21 -21 -21 -21 -20 -20 -19 -19 -20 -20 -20 -20 -20 -20 -20 -20 -20 -20 -20 -20 -19 -19 -19 -18 -17 -16 -15 -14
-25 -25 -25 -25 -25 -25 -25 -25 -25 -24 -24 -24 -24 -24 -24 -24 -25 -25 -24 -24 -24 -23 -23 -23 -22 -22 -22 -21 -21 -20 -20 -21 -21 -21 -21 -21 -21 -21 -20 -20 -20 -19 -19 -19 -19 -20 -20 -20 -20 -20 -20 -20 -20 -20 -20 -20 -19 -19 -19 -18 -17 -16 -15
-26 -26 -26 -26 -26 -26 -25 -25 -25 -25 -24 -24 -24 -24 -24 -25 -25 -24 -24 -24 -23 -23 -23 -22 -22 -22 -22 -22 -22 -21 -20 -20 -21 -21 -21 -21 -20 -20 -20 -20 -19 -19 -19 -19 -19 -19 -19 -19 -19 -19 -19 -19 -19 -19 -20 -20 -20 -19 -19 -19 -19 -18 -16
-26 -26 -26 -26 -26 -26 -26 -25 -25 -25 -24 -24 -24 -24 -24 -25 -25 -25 -24 -24 -24 -23 -23 -23 -23 -23 -23 -23 -22 -22 -21 -20 -20 -20 -20 -20 -20 -19 -19 -19 -18 -18 -18 -18 -18 -18 -18 -18 -18 -18 -18 -18 -18 -18 -19 -19 -20 -19 -19 -19 -19 -19 -18
-26 -26 -26 -26 -26 -26 -26 -25 -25 -25 -24 -24 -24 -24 -24 -25 -25 -25 -25 -24 -24 -24 -23 -23 -23 -23 -22 -22 -21 -21 -20 -20 -19 -19 -19 -19 -19 -19 -19 -19 -18 -18 -18 -18 -18 -18 -18 -18 -18 -18 -18 -17 -17 -17 -18 -19 -19 -19 -19 -19 -19 -19 -18
-26 -26 -26 -26 -26 -26 -26 -26 -25 -25 -24 -24 -24 -24 -24 -25 -25 -25 -25 -24 -24 -24 -23 -23 -23 -22 -22 -21 -21 -21 -20 -19 -19 -19 -19 -19 -18 -18 -18 -18 -18 -18 -18 -18 -18 -18 -18 -18 -18 -18 -18 -18 -18 -18 -18 -18 -19 -19 -19 -19 -19 -18 -18
-26 -27 -27 -26 -26 -26 -26 -26 -25 -24 -24 -24 -24 -24 -24 -25 -25 -25 -24 -24 -24 -24 -23 -23 -23 -22 -22 -22 -21 -21 -20 -19 -18 -18 -18 -18 -18 -18 -17 -17 -17 -17 -17 -17 -18 -18 -18 -18 -18 -18 -18 -18 -18 -18 -18 -18 -18 -18 -19 -19 -19 -18 -18
-27 -27 -26 -26 -26 -26 -26 -26 -26 -25 -24 -24 -24 -24 -24 -24 -25 -24 -25 -25 -24 -24 -24 -23 -23 -23 -22 -22 -21 -21 -20 -19 -18 -18 -18 -18 -17 -17 -17 -17 -17 -17 -17 -17 -18 -18 -18 -18 -18 -18 -18 -18 -18 -18 -18 -18 -18 -18 -18 -18 -18 -18 -18
-27 -27 -27 -26 -26 -26 -26 -27 -27 -27 -26 -26 -25 -24 -24 -24 -24 -24 -25 -25 -25 -24 -24 -24 -23 -23 -22 -22 -21 -21 -20 -19 -19 -18 -18 -18 -17 -16 -16 -16 -17 -17 -17 -17 -18 -18 -18 -18 -18 -18 -18 -18 -18 -18 -18 -18 -18 -18 -18 -18 -18 -18 -18
-27 -27 -27 -27 -27 -27 -27 -28 -28 -28 -28 -27 -26 -25 -24 -24 -24 -24 -24 -25 -25 -25 -24 -24 -24 -23 -23 -22 -21 -21 -20 -20 -19 -19 -18 -18 -17 -17 -16 -16 -17 -17 -17 -17 -17 -17 -17 -17 -17 -17 -17 -17 -17 -17 -17 -18 -18 -18 -18 -17 -18 -18 -18
-27 -27 -27 -28 -28 -28 -28 -28 -28 -28 -28 -27 -27 -26 -25 -25 -24 -24 -25 -25 -25 -25 -24 -24 -24 -23 -23 -22 -21 -21 -21 -20 -20 -19 -19 -18 -18 -17 -17 -17 -17 -16 -16 -17 -17 -17 -18 -17 -17 -17 -17 -17 -17 -17 -17 -17 -18 -18 -17 -17 -17 -17 -17
-28 -28 -28 -29 -29 -29 -29 -29 -28 -28 -28 -27 -27 -26 -26 -26 -25 -25 -26 -26 -25 -25 -24 -24 -24 -24 -23 -22 -22 -22 -22 -21 -20 -20 -19 -19 -18 -18 -17 -17 -17 -16 -16 -17 -17 -17 -17 -17 -17 -17 -17 -17 -16 -17 -17 -17 -17 -17 -17 -17 -17 -16 -16
-29 -29 -29 -29 -29 -29 -29 -29 -29 -29 -28 -27 -27 -27 -27 -26 -26 -26 -26 -26 -25 -25 -25 -25 -24 -24 -23 -23 -22 -22 -22 -22 -21 -20 -20 -19 -19 -18 -18 -17 -17 -17 -17 -17 -16 -16 -17 -16 -16 -17 -17 -17 -17 -17 -17 -17 -17 -17 -17 -16 -16 -16 -16
-29 -30 -30 -29 -29 -29 -29 -29 -29 -28 -28 -27 -27 -27 -27 -27 -27 -27 -27 -26 -26 -26 -25 -25 -24 -24 -23 -23 -22 -22 -22 -22 -21 -21 -20 -20 -19 -18 -18 -17 -17 -17 -17 -17 -16 -16 -16 -16 -16 -17 -17 -17 -17 -17 -16 -16 -16 -16 -16 -16 -16 -16 -16
-29 -29 -29 -29 -30 -30 -30 -29 -29 -28 -27 -27 -28 -27 -27 -27 -27 -27 -26 -26 -26 -26 -25 -24 -24 -24 -23 -23 -22 -22 -22 -22 -22 -22 -21 -20 -19 -19 -18 -17 -17 -17 -17 -17 -16 -16 -15 -15 -16 -16 -16 -16 -16 -16 -16 -16 -16 -16 -16 -16 -16 -15 -15
-29 -29 -29 -29 -30 -30 -30 -30 -29 -28 -27 -27 -27 -27 -27 -27 -26 -26 -26 -26 -26 -25 -25 -25 -25 -24 -23 -23 -23 -23 -23 -23 -23 -23 -22 -21 -20 -19 -18 -17 -17 -17 -17 -17 -16 -16 -15 -15 -16 -16 -16 -16 -16 -16 -16 -16 -16 -16 -15 -15 -15 -15 -15
-28 -28 -28 -29 -30 -29 -29 -29 -29 -28 -27 -27 -27 -27 -26 -26 -26 -26 -26 -26 -26 -25 -25 -25 -25 -24 -24 -24 -25 -25 -25 -25 -24 -24 -24 -23 -21 -20 -19 -18 -18 -18 -18 -17 -16 -16 -16 -16 -16 -16 -16 -16 -16 -16 -16 -16 -16 -16 -15 -15 -15 -15 -15
-27 -27 -27 -28 -29 -29 -29 -28 -28 -28 -27 -27 -27 -26 -26 -26 -26 -26 -26 -26 -26 -26 -25 -25 -25 -25 -25 -25 -26 -27 -27 -26 -26 -26 -26 -24 -23 -21 -20 -19 -18 -18 -18 -17 -17 -16 -16 -16 -16 -16 -16 -16 -16 -16 -16 -16 -16 -16 -16 -15 -15 -15 -15
-27 -27 -27 -28 -28 -28 -28 -28 -28 -28 -27 -27 -27 -26 -26 -26 -26 -26 -26 -27 -26 -26 -25 -25 -26 -26 -26 -26 -27 -27 -27 -27 -27 -27 -27 -26 -24 -23 -22 -21 -19 -19 -18 -17 -17 -17 -16 -16 -16 -16 -16 -16 -16 -16 -16 -16 -16 -16 -16 -15 -15 -15 -15
-27 -27 -27 -27 -27 -28 -28 -28 -28 -28 -27 -27 -27 -26 -27 -27 -27 -26 -27 -27 -26 -26 -26 -26 -27 -27 -27 -27 -27 -28 -28 -28 -27 -27 -27 -26 -25 -24 -23 -21 -20 -19 -18 -18 -17 -17 -16 -16 -16 -16 -16 -16 -16 -16 -16 -16 -16 -16 -16 -15 -15 -15 -15
-27 -27 -27 -27 -27 -27 -28 -28 -28 -27 -27 -27 -27 -27 -28 -28 -27 -27 -27 -27 -27 -27 -27 -27 -28 -28 -28 -28 -28 -28 -28 -28 -28 -27 -27 -26 -25 -25 -23 -22 -21 -20 -19 -18 -17 -17 -17 -17 -16 -16 -16 -16 -16 -16 -16 -16 -16 -16 -16 -16 -15 -15 -15
-27 -27 -27 -28 -28 -28 -28 -28 -28 -28 -28 -28 -28 -29 -28 -28 -27 -26 -26 -27 -27 -28 -28 -28 -29 -29 -29 -28 -28 -28 -29 -28 -28 -28 -27 -26 -25 -25 -24 -22 -21 -20 -19 -19 -18 -17 -17 -17 -17 -17 -17 -17 -17 -17 -17 -17 -17 -17 -16 -16 -15 -15 -15
-28 -28 -28 -28 -28 -28 -28 -28 -28 -28 -28 -28 -29 -29 -28 -28 -27 -27 -27 -27 -28 -28 -28 -28 -29 -29 -29 -29 -28 -28 -28 -28 -28 -28 -27 -27 -26 -25 -24 -23 -22 -21 -20 -19 -18 -18 -17 -17 -17 -17 -17 -17 -17 -17 -17 -17 -17 -17 -17 -16 -16 -15 -15
Height
1462 1461 1459 1457 1455 1453 1450 1448 1446 1445 1443 1441 1438 1437 1435 1433 1431 1429 1427 1425 1423 1422 1421 1419 1417 1415 1414 1413 1412 1410 1409 1408 1408 1408 1407 1407 1405 1405 1404 1403 1402 1397 1391 1392 1394 1392 1390 1392 1393 1392 1392 1393 1392 1393 1394 1394 1394 1394 1394 1393 1393 1393 1393
1459 1458 1456 1453 1451 1449 1447 1445 1443 1441 1439 1436 1434 1432 1430 1428 1426 1424 1422 1421 1419 1417 1416 1414 1412 1410 1409 1409 1407 1405 1404 1403 1403 1402 1401 1401 1400 1399 1399 1398 1397 1394 1390 1387 1389 1387 1385 1386 1387 1386 1387 1388 1388 1388 1389 1389 1389 1389 1389 1389 1389 1388 1388
1456 1454 1452 1450 1447 1445 1443 1440 1438 1436 1434 1432 1430 1427 1425 1423 1421 1419 1417 1415 1413 1411 1410 1409 1407 1405 1404 1404 1402 1400 1400 1398 1397 1397 1395 1394 1394 1393 1392 1393 1392 1390 1387 1384 1384 1383 1380 1379 1381 1380 1380 1383 1383 1383 1383 1383 1383 1384 1384 1384 1384 1384 1383
1453 1451 1448 1446 1443 1441 1439 1436 1434 1432 1429 1427 1425 1423 1420 1418 1416 1414 1411 1409 1407 1405 1404 1402 1400 1399 1398 1398 1396 1394 1394 1393 1392 1391 1390 1389 1389 1388 1387 1387 1387 1385 1384 1381 1379 1378 1376 1375 1375 1374 1374 1376 1377 1377 1378 1378 1377 1378 1378 1378 1379 1379 1379
1450 1447 1444 1442 1439 1437 1434 1432 1430 1427 1424 1422 1420 1418 1415 1413 1410 1408 1406 1403 1401 1400 1398 1396 1394 1393 1393 1392 1390 1389 1388 1388 1387 1386 1386 1384 1384 1383 1382 1382 1382 1380 1380 1378 1375 1373 1372 1370 1369 1368 1368 1370 1371 1370 1371 1372 1372 1372 1372 1372 1373 1373 1373
1446 1443 1440 1438 1435 1433 1430 1428 1425 1423 1420 1418 1415 1413 1410 1407 1405 1402 1400 1398 1396 1394 1392 1391 1389 1388 1387 1386 1385 1384 1383 1382 1382 1381 1380 1379 1379 1379 1378 1377 1376 1376 1375 1374 1372 1370 1368 1366 1365 1363 1362 1363 1366 1366 1365 1366 1366 1366 1367 1367 1367 1367 1368
1441 1439 1436 1433 1431 1429 1426 1423 1421 1418 1415 1413 1410 1408 1405 1402 1399 1397 1394 1392 1390 1388 1386 1385 1384 1382 1382 1381 1380 1379 1378 1378 1377 1376 1375 1374 1374 1373 1373 1372 1371 1370 1370 1368 1367 1365 1364 1362 1360 1359 1357 1357 1361 1361 1360 1361 1360 1359 1361 1362 1362 1362 1363
1436 1434 1431 1429 1426 1424 1421 1419 1416 1413 1411 1408 1405 1403 1399 1397 1394 1391 1388 1386 1384 1383 1381 1379 1378 1377 1376 1375 1374 1374 1373 1373 1372 1371 1370 1369 1369 1368 1367 1366 1365 1365 1364 1363 1361 1360 1359 1358 1357 1355 1353 1353 1356 1355 1354 1356 1356 1354 1355 1357 1357 1357 1358
1432 1429 1426 1424 1422 1419 1417 1414 1411 1408 1406 1403 1400 1397 1394 1391 1388 1385 1383 1380 1378 1376 1375 1373 1372 1371 1370 1369 1369 1368 1367 1367 1367 1366 1364 1363 1363 1362 1361 1360 1359 1359 1358 1357 1356 1355 1355 1354 1352 1351 1350 1349 1350 1350 1350 1352 1352 1350 1349 1351 1351 1351 1353
1428 1425 1422 1419 1416 1414 1411 1408 1406 1403 1401 1399 1397 1394 1390 1387 1384 1382 1379 1376 1373 1370 1369 1368 1366 1364 1363 1363 1362 1361 1360 1360 1359 1359 1358 1357 1357 1356 1355 1354 1353 1353 1352 1352 1351 1350 1350 1350 1347 1347 1347 1345 1345 1346 1346 1347 1348 1346 1345 1347 1346 1345 1346
1423 1420 1418 1415 1411 1409 1406 1403 1401 1398 1396 1395 1393 1391 1388 1384 1381 1379 1376 1373 1370 1367 1365 1364 1362 1361 1359 1358 1356 1354 1353 1353 1352 1352 1351 1351 1350 1350 1349 1348 1347 1346 1345 1345 1344 1343 1344 1343 1342 1342 1343 1342 1341 1342 1342 1342 1343 1342 1342 1343 1342 1339 1340
1419 1416 1413 1410 1407 1404 1401 1398 1396 1394 1392 1390 1388 1386 1384 1381 1377 1374 1371 1369 1366 1364 1362 1360 1358 1357 1355 1353 1351 1350 1348 1346 1345 1345 1344 1344 1344 1343 1343 1343 1341 1339 1338 1337 1336 1336 1336 1336 1336 1337 1338 1337 1337 1338 1339 1338 1338 1338 1338 1338 1338 1336 1336
1415 1411 1409 1406 1402 1399 1396 1393 1391 1389 1387 1385 1383 1381 1380 1377 1374 1370 1367 1364 1362 1359 1357 1355 1353 1351 1349 1347 1346 1344 1342 1340 1339 1338 1337 1336 1336 1335 1335 1335 1335 1334 1332 1331 1330 1328 1327 1329 1331 1331 1331 1332 1334 1334 1334 1333 1332 1333 1334 1334 1333 1333 1333
1410 1407 1404 1402 1398 1395 1391 1388 1386 1384 1382 1380 1378 1376 1374 1372 1369 1365 1361 1359 1357 1354 1352 1350 1348 1345 1342 1341 1340 1338 1336 1334 1333 1331 1330 1328 1327 1326 1326 1326 1326 1326 1326 1325 1324 1321 1319 1321 1324 1324 1324 1327 1329 1329 1328 1327 1327 1328 1329 1329 1328 1327 1327
1405 1402 1400 1397 1394 1390 1386 1384 1382 1380 1378 1376 1374 1372 1369 1366 1363 1359 1356 1354 1352 1350 1347 1345 1343 1340 1337 1335 1333 1331 1330 1328 1327 1325 1323 1321 1319 1318 1317 1316 1316 1316 1316 1316 1316 1314 1312 1313 1316 1317 1317 1319 1322 1322 1321 1322 1322 1324 1325 1325 1323 1321 1320
1401 1398 1395 1393 1390 1386 1381 1379 1377 1376 1374 1371 1369 1367 1365 1361 1358 1355 1352 1349 1347 1344 1342 1340 1338 1335 1333 1330 1327 1325 1323 1322 1321 1319 1317 1314 1312 1310 1308 1307 1307 1307 1307 1307 1307 1306 1306 1306 1307 1309 1310 1311 1314 1314 1315 1317 1318 1318 1320 1320 1317 1314 1314
1397 1394 1391 1388 1386 1382 1377 1374 1372 1372 1369 1367 1365 1363 1360 1357 1354 1351 1347 1345 1342 1340 1337 1335 1333 1331 1329 1326 1322 1320 1317 1316 1314 1313 1310 1308 1305 1302 1300 1298 1298 1300 1300 1300 1300 1299 1299 1299 1300 1301 1302 1304 1306 1306 1308 1311 1310 1310 1313 1314 1312 1309 1308
1393 1390 1387 1384 1381 1379 1374 1370 1368 1367 1365 1363 1361 1359 1356 1353 1350 1347 1344 1341 1338 1335 1333 1330 1328 1327 1325 1322 1319 1316 1313 1310 1309 1307 1305 1302 1299 1296 1292 1290 1291 1292 1292 1292 1292 1293 1293 1293 1294 1295 1296 1297 1299 1300 1303 1303 1301 1302 1306 1308 1306 1305 1304
1389 1385 1383 1380 1377 1375 1371 1367 1365 1363 1361 1359 1357 1355 1353 1350 1347 1344 1341 1338 1334 1331 1328 1326 1324 1322 1321 1318 1315 1312 1308 1305 1302 1300 1299 1296 1293 1288 1285 1283 1284 1284 1284 1283 1283 1284 1285 1286 1287 1288 1289 1290 1291 1294 1296 1297 1295 1297 1300 1301 1301 1300 1300
1386 1381 1379 1376 1373 1370 1368 1364 1360 1358 1357 1354 1353 1351 1349 1347 1344 1341 1337 1334 1331 1327 1324 1322 1320 1317 1315 1313 1310 1306 1302 1298 1295 1293 1291 1289 1286 1281 1278 1277 1277 1275 1275 1276 1275 1276 1277 1278 1280 1281 1282 1282 1283 1285 1287 1289 1289 1291 1293 1294 1294 1294 1295
1382 1378 1374 1372 1369 1366 1363 1360 1356 1353 1352 1351 1349 1348 1346 1344 1341 1338 1335 1330 1327 1324 1321 1318 1315 1312 1309 1307 1303 1299 1295 1292 1289 1287 1284 1281 1278 1274 1272 1271 1269 1268 1269 1270 1270 1270 1271 1272 1273 1274 1275 1275 1276 1277 1279 1280 1282 1284 1286 1287 1287 1288 1289
1378 1374 1370 1367 1365 1361 1358 1356 1353 1351 1348 1347 1346 1344 1343 1341 1338 1336 1332 1327 1323 1321 1317 1314 1311 1308 1304 1301 1297 1293 1290 1286 1283 1281 1278 1275 1272 1268 1267 1266 1265 1264 1264 1264 1264 1265 1265 1266 1266 1267 1267 1268 1269 1270 1271 1273 1274 1276 1278 1280 1280 1282 1284
1373 1369 1365 1362 1360 1357 1355 1353 1350 1348 1346 1344 1342 1340 1338 1337 1335 1332 1329 1324 1320 1317 1313 1310 1307 1303 1299 1296 1292 1288 1285 1281 1278 1275 1272 1270 1267 1264 1263 1262 1261 1260 1260 1259 1259 1259 1259 1259 1260 1260 1260 1261 1262 1263 1264 1265 1266 1268 1271 1272 1274 1276 1279
1369 1366 1362 1359 1356 1354 1352 1349 1347 1345 1343 1341 1339 1336 1334 1332 1330 1328 1324 1321 1317 1314 1311 1307 1304 1299 1296 1292 1288 1284 1280 1276 1272 1270 1267 1265 1262 1261 1259 1258 1257 1257 1256 1254 1254 1253 1253 1253 1252 1253 1253 1254 1255 1257 1258 1259 1260 1262 1264 1265 1268 1271 1273
1366 1363 1359 1356 1353 1351 1348 1346 1344 1341 1339 1337 1335 1332 1330 1328 1325 1323 1320 1317 1314 1311 1308 1304 1300 1296 1292 1288 1284 1279 1275 1270 1267 1265 1263 1261 1259 1258 1256 1255 1254 1253 1252 1250 1249 1248 1247 1246 1245 1246 1247 1249 1250 1252 1254 1255 1256 1257 1259 1261 1263 1266 1268
1362 1360 1357 1354 1351 1348 1345 1343 1340 1338 1335 1333 1331 1328 1325 1323 1320 1317 1315 1313 1310 1306 1303 1299 1296 1292 1288 1284 1280 1276 1272 1267 1264 1261 1259 1257 1256 1254 1253 1252 1251 1249 1248 1246 1245 1243 1242 1240 1240 1241 1243 1245 1247 1248 1250 1251 1251 1252 1254 1256 1258 1260 1262
1359 1357 1354 1351 1348 1345 1342 1340 1337 1335 1332 1330 1327 1324 1321 1319 1316 1313 1311 1309 1305 1301 1297 1294 1291 1288 1284 1281 1278 1274 1270 1265 1261 1258 1255 1253 1252 1251 1250 1249 1248 1246 1244 1242 1240 1239 1237 1236 1237 1238 1240 1242 1243 1244 1245 1247 1248 1248 1249 1251 1253 1255 1256
1356 1354 1352 1348 1345 1342 1339 1337 1334 1332 1329 1327 1324 1322 1319 1316 1313 1311 1308 1305 1301 1297 1293 1290 1287 1284 1281 1278 1274 1270 1266 1262 1258 1254 1252 1249 1248 1247 1247 1246 1245 1243 1240 1237 1235 1233 1233 1232 1234 1236 1238 1239 1240 1241 1242 1243 1244 1245 1246 1247 1249 1250 1251
1354 1352 1349 1346 1343 1340 1337 1333 1330 1329 1327 1325 1323 1321 1318 1315 1312 1309 1306 1302 1298 1294 1290 1288 1285 1281 1278 1275 1271 1267 1263 1259 1255 1251 1248 1246 1245 1244 1243 1243 1242 1239 1237 1234 1232 1231 1229 1229 1231 1234 1235 1236 1237 1238 1239 1240 1241 1242 1243 1244 1245 1246 1247
1354 1351 1348 1345 1341 1339 1335 1331 1328 1326 1325 1323 1321 1319 1317 1314 1311 1307 1304 1299 1295 1292 1289 1285 1282 1279 1276 1272 1268 1265 1261 1257 1253 1249 1245 1243 1242 1241 1240 1240 1239 1237 1234 1232 1231 1230 1229 1229 1231 1233 1234 1235 1236 1236 1237 1238 1239 1239 1241 1241 1242 1243 1245
1352 1349 1347 1343 1339 1335 1332 1329 1326 1323 1322 1320 1318 1315 1313 1310 1307 1304 1301 1296 1292 1289 1287 1283 1280 1277 1274 1271 1268 1264 1261 1257 1253 1249 1245 1242 1240 1239 1238 1237 1237 1235 1233 1231 1230 1231 1230 1230 1230 1231 1232 1233 1234 1235 1235 1236 1237 1237 1238 1239 1240 1241 1244
1347 1345 1343 1340 1336 1333 1329 1326 1323 1321 1319 1317 1314 1312 1309 1306 1303 1300 1297 1293 1290 1287 1284 1281 1278 1275 1272 1270 1267 1264 1260 1257 1253 1249 1246 1242 1239 1238 1237 1236 1235 1234 1233 1231 1230 1231 1231 1230 1230 1231 1231 1232 1232 1233 1234 1234 1235 1235 1236 1237 1238 1239 1241
1343 1340 1337 1335 1332 1330 1326 1323 1320 1318 1315 1313 1311 1308 1305 1302 1299 1297 1294 1290 1288 1285 1282 1279 1277 1274 1272 1269 1266 1263 1260 1257 1253 1250 1246 1243 1240 1237 1235 1234 1233 1233 1232 1230 1229 1230 1230 1230 1230 1230 1230 1231 1231 1232 1232 1233 1233 1234 1235 1235 1236 1237 1239
1337 1335 1332 1329 1327 1324 1322 1319 1317 1314 1312 1309 1307 1304 1301 1298 1296 1294 1292 1288 1285 1283 1280 1278 1275 1273 1270 1268 1265 1262 1259 1256 1253 1250 1246 1243 1241 1238 1235 1233 1232 1231 1231 1229 1228 1228 1229 1230 1230 1229 1229 1230 1230 1230 1231 1231 1232 1232 1233 1234 1234 1236 1237
1331 1329 1327 1325 1322 1319 1317 1315 1313 1311 1308 1306 1304 1301 1298 1295 1293 1291 1289 1286 1283 1281 1278 1276 1274 1272 1269 1267 1264 1261 1259 1255 1252 1249 1246 1243 1240 1237 1235 1233 1231 1230 1229 1229 1228 1227 1228 1228 1229 1229 1228 1228 1229 1229 1229 1230 1230 1231 1231 1232 1233 1234 1236
1326 1324 1323 1321 1318 1315 1313 1311 1309 1307 1305 1304 1302 1299 1295 1292 1290 1288 1285 1283 1281 1279 1277 1275 1273 1270 1268 1266 1263 1260 1258 1255 1252 1249 1246 1243 1241 1238 1235 1233 1231 1230 1229 1228 1227 1227 1226 1226 1227 1227 1227 1227 1228 1228 1228 1228 1229 1229 1230 1230 1231 1233 1234
Wind_Speed
26 24 25 25 25 26 27 27 27 26 26 26 27 27 27 28 28 28 28 27 27 25 23 24 24 24 25 25 25 27 27 28 28 27 24 24 24 24 25 27 27 31 39 40 41 48 49 42 37 38 38 36 37 37 35 34 34 33 33 33 33 32 31
26 25 25 26 26 26 26 26 25 25 24 24 25 26 27 28 28 31 32 30 29 29 26 26 25 25 27 27 26 29 30 30 31 31 30 31 31 30 29 28 28 30 33 33 35 43 48 43 38 38 36 32 33 34 34 34 33 32 32 33 32 31 31
27 26 26 26 26 25 25 25 25 24 24 24 25 27 29 31 32 35 37 36 37 36 33 33 33 31 32 30 29 31 32 31 34 34 35 36 34 33 33 32 30 30 31 30 31 39 47 46 42 41 40 35 34 34 34 35 35 33 33 33 33 32 31
26 27 26 25 25 25 24 26 28 30 31 31 32 34 34 36 37 39 40 40 41 41 38 38 39 37 36 35 34 35 34 33 34 34 33 34 34 33 33 32 29 29 29 29 29 33 41 45 40 39 39 36 35 36 35 35 35 35 35 35 34 34 34
25 25 25 26 27 27 27 28 31 34 37 37 39 39 39 40 41 41 41 41 40 39 39 39 39 37 36 35 34 35 34 32 32 32 32 33 33 33 32 30 29 28 26 27 28 29 35 43 43 41 41 38 36 39 40 38 36 35 35 36 36 36 37
26 27 28 30 31 32 33 33 35 37 39 41 41 41 41 41 41 41 40 40 39 38 37 37 37 36 35 34 34 34 33 32 32 32 33 34 34 34 34 34 33 32 30 29 29 29 32 40 44 43 44 41 36 36 37 38 40 40 38 38 37 37 38
33 33 34 35 36 36 37 37 38 39 40 41 41 41 41 40 40 39 38 38 38 37 37 37 37 37 36 35 35 35 33 33 33 34 35 35 35 35 36 36 37 36 37 36 34 32 32 37 41 43 45 43 35 31 32 34 37 40 39 37 36 37 36
36 37 37 37 37 37 37 38 39 39 40 40 40 39 39 38 38 38 38 38 38 37 37 38 37 37 37 36 36 35 35 34 34 35 36 36 36 37 37 39 39 39 40 39 36 33 32 32 33 37 42 41 32 28 32 32 33 37 38 35 35 35 35
37 37 38 37 37 37 37 38 39 39 39 39 38 38 38 38 38 39 39 40 40 39 39 40 39 38 37 37 36 36 36 36 35 35 36 36 36 37 39 40 40 40 40 37 33 30 29 28 28 30 34 36 32 28 29 27 28 34 37 36 35 35 34
37 37 37 38 38 38 38 38 39 39 38 37 36 36 36 37 37 38 39 40 41 42 42 41 39 39 38 38 39 39 39 39 38 37 38 37 37 38 40 40 41 41 40 38 35 33 30 27 28 28 27 31 33 30 28 27 27 31 34 33 34 36 35
38 37 37 37 38 38 38 39 39 39 38 36 34 33 32 33 35 37 39 40 39 39 39 37 35 35 36 38 41 43 42 42 41 40 40 40 39 40 41 42 43 43 43 42 42 41 37 32 32 30 27 30 33 29 28 28 28 30 32 31 33 35 34
37 38 37 37 38 38 38 39 39 38 36 34 32 30 29 31 34 36 38 39 37 36 37 38 38 38 39 40 42 44 43 43 42 41 41 41 40 41 42 42 45 47 48 48 47 48 46 42 39 35 31 32 33 29 27 28 28 28 30 31 32 34 32
38 38 38 38 38 39 39 39 39 37 35 33 31 31 29 30 32 35 37 39 38 38 40 42 42 43 42 41 42 43 42 42 42 42 42 43 43 44 44 44 45 47 50 52 54 55 54 50 46 42 39 37 33 30 29 31 31 29 29 30 31 33 33
38 38 38 38 38 39 40 40 38 37 35 32 32 31 29 29 32 35 36 37 39 39 40 40 40 41 41 40 40 40 40 40 41 42 44 45 46 47 48 48 48 47 48 51 54 57 58 55 50 47 46 42 36 34 35 36 35 32 32 34 34 33 32
38 39 39 38 38 39 40 39 38 36 34 32 31 30 28 29 31 33 33 34 34 34 34 35 35 36 37 37 38 37 37 38 40 42 44 46 48 50 50 50 50 50 50 51 52 55 57 57 54 52 50 47 42 41 41 41 39 36 34 37 41 42 39
39 39 39 38 38 39 40 39 37 35 33 31 29 27 26 27 29 30 30 30 29 29 29 30 31 33 35 36 38 38 38 39 41 43 45 47 50 51 52 52 50 48 49 50 50 51 51 51 52 52 52 51 49 48 47 44 42 41 38 37 41 46 49
39 39 39 39 38 38 39 39 37 35 32 29 25 23 23 26 28 29 29 30 30 30 30 31 32 33 35 37 39 41 41 41 42 45 48 50 53 55 56 56 53 49 47 46 45 46 46 45 45 45 44 45 46 48 49 45 42 43 42 39 38 40 44
40 40 39 39 38 37 37 38 37 34 30 25 21 20 22 26 29 30 30 31 31 30 31 33 33 32 34 37 38 40 42 42 44 47 50 51 52 55 58 58 55 52 50 47 45 44 44 44 45 44 43 43 42 43 44 44 44 44 41 39 38 37 36
40 40 39 38 37 36 35 35 34 32 27 22 19 19 21 27 30 31 31 32 32 33 34 33 33 32 33 34 36 38 40 40 42 44 45 46 47 49 52 52 49 48 48 48 47 46 44 43 44 45 45 46 45 43 42 44 47 46 43 40 39 38 34
38 39 39 37 36 35 33 33 33 30 26 23 20 21 23 26 28 30 32 34 35 36 34 32 32 32 33 35 38 39 38 36 36 37 41 45 45 44 45 44 43 44 44 43 44 43 42 43 42 42 43 43 44 45 45 45 47 47 46 45 43 41 37
37 38 38 36 35 34 33 33 33 32 30 26 23 22 23 24 26 28 32 36 35 32 31 31 31 32 35 39 41 38 35 33 34 37 43 45 42 38 38 38 39 40 38 37 39 39 40 42 42 41 40 39 38 40 43 45 47 47 47 48 49 47 43
37 37 37 35 34 33 33 33 33 32 32 31 28 24 22 22 24 26 30 34 32 30 31 32 31 33 39 42 41 38 36 36 38 40 39 37 34 33 33 31 32 33 32 32 34 36 37 39 40 40 40 38 35 35 37 42 46 48 48 49 50 50 48
36 36 36 35 34 33 33 33 32 30 31 33 33 27 22 21 23 26 28 30 30 32 32 31 32 37 43 43 40 39 38 37 37 36 33 31 29 26 26 25 25 27 29 31 33 34 35 37 38 38 38 38 36 34 34 37 41 45 47 48 49 48 49
35 34 34 33 33 33 33 34 33 30 31 36 36 30 24 23 24 27 28 28 30 33 31 30 34 41 45 42 38 38 37 36 36 33 32 31 28 23 22 23 22 21 25 31 36 37 37 38 40 39 38 37 36 33 33 34 37 39 41 43 44 44 45
34 33 31 30 31 33 35 35 32 31 34 38 37 31 27 26 28 29 29 29 31 31 28 31 38 43 42 39 36 35 34 35 34 32 31 31 27 24 23 23 21 21 22 26 34 40 41 42 42 41 39 37 33 31 30 31 33 35 36 38 39 39 40
33 30 29 30 32 34 35 34 31 33 39 39 36 33 32 31 32 32 30 29 30 27 29 37 42 42 38 35 31 29 29 29 30 30 30 29 27 25 23 22 22 23 23 24 27 34 40 42 43 41 38 35 33 32 29 28 30 32 34 36 37 37 39
31 29 29 32 35 34 32 31 32 37 40 38 35 35 35 35 34 33 31 30 28 29 37 43 42 37 34 31 28 25 25 26 25 26 27 27 26 24 21 20 20 20 22 25 26 27 32 38 38 36 33 32 32 31 27 26 27 29 31 33 34 36 39
31 31 32 34 36 33 30 31 36 39 38 35 35 36 35 35 34 33 33 32 30 34 41 41 36 33 30 27 25 24 25 26 26 24 23 24 23 21 19 18 17 16 19 22 23 22 24 29 30 28 28 28 28 27 25 24 24 25 26 27 29 33 36
31 32 34 34 32 29 28 32 36 37 35 33 32 32 32 32 31 32 33 34 33 37 39 35 31 29 26 23 23 25 26 28 28 26 22 20 18 16 15 16 14 13 17 18 16 14 15 17 18 19 20 22 22 22 22 21 22 24 23 22 25 30 31
27 29 30 30 29 28 29 32 35 35 33 30 28 28 28 28 29 31 32 33 33 34 32 28 26 25 22 22 23 25 27 29 30 28 25 20 16 12 12 13 12 11 14 14 10 8 8 11 13 14 16 16 17 17 17 18 20 22 21 20 22 25 25
24 24 25 25 26 28 30 31 32 33 31 28 27 27 26 27 28 29 29 30 30 29 26 23 22 22 21 22 23 24 26 29 29 29 29 24 18 13 10 10 11 10 9 9 9 6 6 8 10 12 12 11 12 13 15 16 18 20 20 21 22 23 24
25 23 22 22 24 26 28 29 30 30 28 26 26 25 24 26 27 27 26 26 25 24 21 20 19 20 22 23 23 24 26 27 29 29 29 26 22 17 13 10 10 10 7 7 8 8 7 7 8 9 9 9 9 10 12 15 17 18 19 20 23 25 24
27 25 24 23 23 23 24 25 26 26 25 24 23 22 22 25 27 25 23 22 21 20 19 18 18 19 21 22 24 25 25 26 28 29 28 27 24 20 16 12 9 8 6 5 7 8 8 8 8 8 9 10 10 11 12 13 15 18 19 19 21 24 24
30 28 27 26 25 24 23 23 23 23 23 23 21 21 22 25 25 22 20 18 18 19 19 19 18 19 21 22 23 25 25 26 27 28 28 27 24 21 17 12 9 7 7 6 5 5 7 9 9 10 11 12 12 12 13 14 15 17 20 20 19 21 23
34 31 29 28 27 26 25 24 23 22 21 20 20 21 23 24 23 20 18 17 18 19 20 20 20 20 20 21 22 24 25 26 26 27 28 27 25 22 18 14 10 8 8 8 6 4 6 8 11 12 12 12 12 12 13 14 15 16 20 23 22 19 21
37 35 32 30 28 28 27 26 24 22 20 19 19 20 22 22 21 20 19 19 19 19 20 20 20 20 21 21 22 23 24 25 25 25 26 26 25 23 19 17 14 11 8 8 8 7 7 8 9 11 13 12 12 12 14 15 15 15 17 22 24 22 20
Wind_Direction
310 307 305 303 303 302 301 300 300 298 296 293 291 290 288 287 287 287 285 284 284 283 280 281 278 275 278 278 276 275 273 271 269 266 263 262 263 264 263 263 262 264 268 269 267 267 268 269 268 268 267 267 269 268 267 266 265 265 265 264 265 264 262
308 304 302 302 301 299 297 297 296 295 293 291 290 290 290 289 288 289 289 286 285 284 281 280 279 276 278 278 275 275 274 272 270 269 268 267 267 267 265 263 263 265 269 272 271 270 270 270 269 268 267 266 267 268 268 267 266 264 262 261 262 262 258
307 304 302 301 299 297 296 296 296 295 294 292 292 292 292 292 293 295 295 293 293 292 289 286 284 282 282 279 275 275 274 273 273 273 274 274 274 273 271 269 266 264 266 270 272 272 272 273 272 270 268 265 265 266 266 265 265 263 261 259 260 260 258
303 302 302 301 300 299 298 299 300 301 300 298 298 297 296 297 297 298 298 297 297 296 294 291 290 287 286 284 280 279 278 276 275 275 275 276 276 275 275 274 269 264 264 268 271 272 273 274 275 273 271 268 264 262 261 263 265 264 262 259 258 257 257
302 302 303 303 302 302 301 301 302 303 304 304 303 302 301 302 301 301 300 298 296 295 292 290 289 288 287 286 284 282 281 279 278 279 278 277 277 277 276 274 270 266 263 264 267 270 272 274 276 276 275 273 269 266 263 261 260 261 262 262 260 257 255
305 305 304 304 304 305 304 304 304 304 305 305 305 304 304 304 303 301 299 297 295 293 291 288 289 289 288 287 286 284 283 283 282 282 280 278 278 278 277 276 273 271 267 264 265 266 271 276 278 279 278 277 275 271 269 265 262 260 261 263 262 259 256
309 308 308 308 308 307 307 307 306 306 306 306 306 306 305 304 303 301 299 298 296 294 293 291 291 291 289 288 287 286 286 285 285 283 282 281 280 279 278 277 276 276 274 271 268 266 268 274 279 280 280 280 279 273 268 267 265 262 260 260 260 259 257
312 311 310 310 309 309 308 307 306 306 307 307 307 307 307 307 305 303 301 299 298 296 295 295 294 292 290 289 287 287 287 287 286 285 283 281 280 279 278 278 277 276 275 273 269 265 266 269 273 277 280 281 279 271 268 267 264 262 259 257 257 256 256
312 312 311 310 310 310 309 308 307 307 308 310 311 312 311 308 305 303 302 301 300 299 298 298 296 293 292 291 290 291 290 289 287 286 284 282 280 278 276 276 275 273 272 269 263 259 260 260 261 266 273 277 274 269 269 269 264 261 259 256 255 255 254
313 312 311 311 311 311 311 310 309 309 311 314 314 312 308 304 301 300 299 297 296 296 297 296 293 291 291 291 293 294 293 291 290 286 283 282 280 277 274 272 271 269 268 265 261 258 255 253 254 256 260 268 272 270 270 268 263 262 261 257 255 255 253
313 313 313 313 313 313 313 311 310 312 314 315 313 308 304 301 298 296 294 292 290 287 288 288 283 281 283 284 288 292 292 291 289 286 282 279 276 273 271 268 267 267 267 264 262 262 259 252 252 253 254 262 268 269 268 268 265 263 261 256 252 254 252
314 314 314 314 314 314 312 311 311 313 314 314 312 307 302 298 297 296 295 294 290 285 285 286 284 282 281 281 284 287 286 285 284 283 281 279 277 273 269 267 265 265 266 265 262 262 261 258 256 255 254 258 264 265 264 266 265 262 261 258 252 251 253
315 315 316 316 315 313 312 311 312 314 315 315 312 307 302 298 298 298 296 294 291 288 288 289 288 287 286 285 285 285 282 280 280 281 280 279 277 273 270 269 267 265 265 264 263 262 262 261 260 258 257 257 258 259 260 261 261 259 258 258 255 253 254
316 317 316 316 315 313 312 312 313 316 318 315 310 305 303 300 298 297 295 292 291 290 289 288 287 286 286 286 287 286 284 282 280 279 278 277 276 273 270 269 268 266 264 261 258 258 260 262 260 258 258 258 256 254 254 255 257 258 256 254 253 253 253
317 318 317 318 317 314 313 313 315 317 318 315 309 305 303 301 299 297 295 294 293 291 289 288 287 287 289 292 293 292 291 290 285 281 279 277 277 277 275 273 270 268 267 264 259 256 256 257 257 255 255 255 253 251 252 253 256 259 259 257 255 253 251
317 318 318 318 318 316 314 314 315 317 319 317 312 307 305 304 304 304 303 303 302 299 296 295 295 297 299 297 295 295 296 296 290 282 278 277 277 279 279 278 277 274 271 269 267 263 259 258 257 256 255 255 253 251 251 252 253 255 256 257 256 254 251
317 318 318 319 319 318 315 314 315 318 319 317 313 311 310 311 313 314 313 312 310 307 305 305 306 304 299 294 293 295 298 297 291 284 280 277 276 277 277 278 279 278 274 271 269 267 266 264 261 258 257 256 255 254 252 247 244 247 249 249 251 254 254
317 317 319 319 319 317 314 312 314 318 320 319 315 313 316 320 321 319 317 315 313 310 310 310 307 300 293 291 293 294 294 293 289 284 282 280 279 277 274 274 276 276 273 272 269 265 263 262 260 259 259 258 257 255 251 243 240 243 243 239 243 250 254
316 316 317 317 316 315 313 311 313 319 325 329 323 316 320 325 322 318 319 319 317 315 314 310 304 296 291 292 294 295 293 288 284 284 286 287 286 280 274 273 273 271 269 268 266 263 261 260 259 258 259 259 258 254 248 242 242 243 238 234 237 244 247
316 315 315 316 316 314 313 314 317 324 333 338 331 320 321 323 319 319 322 322 319 317 312 306 300 296 296 300 304 304 299 289 285 288 294 296 293 283 276 276 274 270 268 266 264 263 262 261 260 259 258 258 256 253 249 244 243 242 238 235 236 238 241
316 315 315 316 315 314 317 322 325 328 336 341 334 323 319 317 318 322 324 322 319 314 306 303 301 299 302 310 313 311 305 295 291 293 296 299 294 280 273 275 273 271 271 268 264 263 263 262 262 261 260 258 255 251 248 245 243 242 241 238 238 238 239
317 317 316 317 316 317 323 326 324 323 328 334 335 327 316 313 317 321 321 319 316 310 305 305 301 300 309 317 318 314 307 299 295 294 294 298 295 281 273 274 272 272 272 268 264 263 262 262 262 261 260 261 257 251 247 244 243 243 241 240 239 239 239
320 320 319 319 319 321 324 323 320 318 319 326 332 329 318 314 316 317 319 318 312 308 308 305 299 304 316 321 317 311 305 299 296 294 292 297 299 290 283 282 276 269 265 261 261 262 260 260 260 260 259 258 257 254 250 246 243 241 240 240 240 241 240
320 320 320 319 319 320 320 319 319 316 314 320 328 328 323 320 319 319 321 318 311 308 307 300 299 309 318 319 312 308 304 300 299 296 292 293 297 295 292 292 288 278 267 258 253 253 256 257 257 257 256 255 255 254 251 247 243 240 238 238 239 240 240
318 319 318 315 314 315 317 317 316 313 314 321 326 328 327 324 321 323 323 316 310 307 302 298 304 313 317 315 311 308 306 303 302 298 293 291 293 292 291 292 292 290 283 267 251 245 249 255 256 255 255 256 256 254 250 247 243 238 235 234 235 236 236
316 315 314 312 312 314 316 315 312 311 316 322 325 327 327 325 325 327 322 313 311 308 301 304 312 317 317 313 312 314 315 312 306 298 292 289 288 287 287 289 290 290 291 284 264 248 246 252 254 252 251 252 252 250 248 244 239 237 235 232 231 231 232
316 312 310 310 312 313 311 309 308 310 316 320 323 324 323 324 327 327 320 316 316 309 306 312 318 318 313 310 311 318 324 324 315 302 291 285 284 284 284 286 289 292 294 290 278 262 252 250 247 244 242 244 245 244 241 238 238 239 237 233 230 229 230
316 311 310 311 311 309 305 303 306 311 316 320 320 320 320 322 326 324 319 319 316 309 309 315 318 315 312 310 315 325 332 334 330 317 300 289 285 284 281 279 284 299 306 295 279 269 259 248 237 233 235 237 237 236 234 235 238 240 238 235 231 227 224
310 308 311 311 307 303 301 302 306 311 315 316 315 315 315 317 318 316 315 316 312 308 311 316 317 317 317 319 327 337 341 342 340 333 320 305 294 287 280 274 280 308 322 311 286 264 250 233 219 218 225 226 224 225 230 234 238 238 235 229 222 218 213
308 308 309 306 300 297 298 300 304 307 310 312 311 310 310 309 307 307 310 310 309 310 313 315 318 323 328 332 338 343 345 347 348 345 339 329 315 303 287 274 279 309 331 329 311 271 229 206 200 205 215 220 220 223 228 232 235 237 233 222 214 211 208
311 307 304 301 299 300 301 301 302 304 307 311 310 307 307 305 304 306 309 310 311 312 314 317 325 333 338 341 343 344 347 350 351 350 348 344 335 326 311 288 286 305 329 341 331 297 238 216 222 225 227 234 234 231 232 233 234 236 231 220 211 207 207
316 310 305 301 301 302 302 303 303 303 307 309 307 305 306 305 305 310 314 313 313 314 316 322 333 340 342 345 346 345 347 351 353 353 353 351 346 340 332 315 303 305 319 343 338 309 265 243 248 245 240 242 240 235 234 231 230 234 232 220 210 209 209
322 320 315 309 305 303 302 302 301 302 305 305 303 305 309 309 311 317 319 317 317 320 323 330 339 342 342 344 346 346 346 350 354 356 356 356 354 349 342 333 321 307 300 322 333 310 275 256 253 249 247 249 247 244 242 236 231 233 232 223 212 209 207
325 325 323 319 314 311 308 306 306 306 308 309 312 314 312 310 313 319 319 321 329 334 336 339 342 342 342 344 345 346 346 348 353 357 359 359 360 357 351 345 335 315 298 297 308 302 281 269 260 254 255 255 252 250 249 243 236 232 230 228 220 207 200
327 328 327 325 322 320 317 316 316 315 315 318 321 319 312 311 316 322 324 330 339 341 341 342 343 342 344 344 344 345 347 348 351 356 359 2 3 1 359 357 350 332 309 296 291 282 278 276 267 259 257 252 245 244 242 236 233 230 228 228 225 211 199
325 327 328 327 328 326 323 321 321 320 321 322 321 318 316 318 324 329 332 337 342 341 341 343 344 343 344 344 345 345 347 349 351 354 358 3 5 5 5 5 1 351 328 304 289 271 266 271 267 262 260 253 243 240 238 233 228 225 226 226 224 217 205